• In Latvia
  • List of Countries
  • For 7 days
  • Water Temperature
  • Satellite Maps
  • Weather Map
  • Weather Widgets
  • user-avatar
    Login

    Hourly Weather Mayrhofen

    Today, 16 July, Monday

    Time Temperature Precipitation Wind Pressure Humidity
    00:00 +9°C° 0 mm 1 mps 618 mmHg 88%
    01:00 +8°C° 0 mm 1 mps 618 mmHg 88%
    02:00 +8°C° 0 mm 1 mps 617 mmHg 87%
    03:00 +8°C° 0 mm 1 mps 617 mmHg 86%
    04:00 +7°C° 0 mm 1 mps 617 mmHg 85%
    05:00 +9°C° 0 mm 1 mps 618 mmHg 81%
    06:00 +11°C° 0 mm 1 mps 618 mmHg 76%
    07:00 +13°C° 0 mm 1 mps 619 mmHg 72%
    08:00 +14°C° 0.2 mm 1 mps 619 mmHg 65%
    09:00 +16°C° 0.2 mm 1 mps 620 mmHg 58%
    10:00 +19°C° 0.2 mm 1 mps 620 mmHg 50%
    11:00 +19°C° 0.6 mm 1 mps 620 mmHg 49%
    12:00 +20°C° 0.6 mm 1 mps 620 mmHg 48%
    13:00 +19°C° 0.6 mm 2 mps 620 mmHg 46%
    14:00 +18°C° 0.9 mm 2 mps 619 mmHg 51%
    15:00 +18°C° 0.9 mm 2 mps 619 mmHg 56%
    16:00 +17°C° 0.9 mm 2 mps 618 mmHg 60%
    17:00 +16°C° 0.5 mm 2 mps 618 mmHg 66%
    18:00 +15°C° 0.5 mm 2 mps 618 mmHg 72%
    19:00 +14°C° 0.5 mm 1 mps 618 mmHg 78%
    20:00 +12°C° 0.1 mm 1 mps 617 mmHg 82%
    21:00 +10°C° 0.1 mm 2 mps 617 mmHg 87%
    22:00 +8°C° 0.1 mm 2 mps 616 mmHg 91%
    23:00 +8°C° 0 mm 2 mps 616 mmHg 92%

    Tomorrow, 17 July, Tuesday

    Time Temperature Precipitation Wind Pressure Humidity
    00:00 +7°C° 0 mm 2 mps 616 mmHg 93%
    01:00 +7°C° 0 mm 2 mps 616 mmHg 93%
    02:00 +7°C° 0 mm 2 mps 616 mmHg 93%
    03:00 +6°C° 0 mm 2 mps 616 mmHg 92%
    04:00 +6°C° 0 mm 2 mps 616 mmHg 91%
    05:00 +8°C° 0 mm 2 mps 617 mmHg 87%
    06:00 +9°C° 0 mm 2 mps 618 mmHg 83%
    07:00 +12°C° 0 mm 2 mps 618 mmHg 78%
    08:00 +13°C° 0.1 mm 2 mps 619 mmHg 70%
    09:00 +15°C° 0.1 mm 2 mps 620 mmHg 62%
    10:00 +16°C° 0.1 mm 2 mps 620 mmHg 54%
    11:00 +17°C° 0.1 mm 2 mps 620 mmHg 51%
    12:00 +18°C° 0.1 mm 2 mps 621 mmHg 49%
    13:00 +19°C° 0.1 mm 2 mps 621 mmHg 46%
    14:00 +19°C° 0.4 mm 3 mps 621 mmHg 50%
    15:00 +18°C° 0.4 mm 3 mps 620 mmHg 54%
    16:00 +18°C° 0.4 mm 3 mps 620 mmHg 59%
    17:00 +16°C° 0.5 mm 2 mps 620 mmHg 66%
    18:00 +15°C° 0.5 mm 2 mps 620 mmHg 73%
    19:00 +14°C° 0.5 mm 2 mps 619 mmHg 80%
    20:00 +12°C° 0.1 mm 2 mps 619 mmHg 84%
    21:00 +10°C° 0.1 mm 2 mps 619 mmHg 88%
    22:00 +8°C° 0.1 mm 2 mps 619 mmHg 92%
    23:00 +8°C° 0 mm 2 mps 618 mmHg 92%

    Day after tomorrow, 18 July, Wednesday

    Time Temperature Precipitation Wind Pressure Humidity
    00:00 +7°C° 0 mm 2 mps 618 mmHg 91%
    01:00 +6°C° 0 mm 2 mps 618 mmHg 91%
    02:00 +6°C° 0 mm 2 mps 618 mmHg 89%
    03:00 +7°C° 0 mm 1 mps 618 mmHg 88%
    04:00 +7°C° 0 mm 1 mps 618 mmHg 87%
    05:00 +8°C° 0 mm 1 mps 618 mmHg 82%
    06:00 +10°C° 0 mm 1 mps 619 mmHg 77%
    07:00 +12°C° 0 mm 1 mps 620 mmHg 72%
    08:00 +14°C° 0 mm 1 mps 621 mmHg 64%
    09:00 +16°C° 0 mm 2 mps 621 mmHg 57%
    10:00 +18°C° 0 mm 2 mps 622 mmHg 49%
    11:00 +19°C° 0 mm 2 mps 622 mmHg 46%
    12:00 +20°C° 0 mm 2 mps 622 mmHg 43%
    13:00 +21°C° 0 mm 2 mps 622 mmHg 40%
    14:00 +21°C° 0.1 mm 2 mps 622 mmHg 43%
    15:00 +20°C° 0.1 mm 2 mps 622 mmHg 46%
    16:00 +20°C° 0.1 mm 3 mps 622 mmHg 49%
    17:00 +18°C° 0.3 mm 2 mps 621 mmHg 59%
    18:00 +17°C° 0.3 mm 2 mps 621 mmHg 70%
    19:00 +16°C° 0.3 mm 2 mps 620 mmHg 80%
    20:00 +14°C° 0.1 mm 2 mps 620 mmHg 85%
    21:00 +13°C° 0.1 mm 2 mps 620 mmHg 89%
    22:00 +11°C° 0.1 mm 1 mps 620 mmHg 94%
    23:00 +11°C° 0 mm 1 mps 620 mmHg 95%

    19 July, Thursday

    Time Temperature Precipitation Wind Pressure Humidity
    00:00 +10°C° 0 mm 1 mps 619 mmHg 95%
    01:00 +10°C° 0 mm 1 mps 619 mmHg 96%
    02:00 +10°C° 0 mm 1 mps 619 mmHg 96%
    03:00 +9°C° 0 mm 1 mps 619 mmHg 96%
    04:00 +8°C° 0 mm 1 mps 618 mmHg 96%
    05:00 +10°C° 0 mm 1 mps 619 mmHg 90%
    06:00 +11°C° 0 mm 1 mps 619 mmHg 84%
    07:00 +13°C° 0 mm 1 mps 620 mmHg 78%
    08:00 +15°C° 0 mm 1 mps 621 mmHg 68%
    09:00 +18°C° 0 mm 1 mps 621 mmHg 58%
    10:00 +19°C° 0 mm 2 mps 622 mmHg 48%
    11:00 +20°C° 0 mm 2 mps 622 mmHg 45%
    12:00 +21°C° 0 mm 2 mps 622 mmHg 42%
    13:00 +23°C° 0 mm 2 mps 622 mmHg 40%
    14:00 +21°C° 0.1 mm 2 mps 622 mmHg 42%
    15:00 +21°C° 0.1 mm 2 mps 622 mmHg 44%
    16:00 +21°C° 0.1 mm 2 mps 622 mmHg 46%
    17:00 +19°C° 0.3 mm 2 mps 621 mmHg 55%
    18:00 +18°C° 0.3 mm 2 mps 621 mmHg 64%
    19:00 +16°C° 0.3 mm 2 mps 620 mmHg 73%
    20:00 +15°C° 0.2 mm 1 mps 620 mmHg 79%
    21:00 +13°C° 0.2 mm 1 mps 619 mmHg 85%
    22:00 +11°C° 0.2 mm 1 mps 619 mmHg 90%
    23:00 +11°C° 0 mm 1 mps 619 mmHg 90%

    20 July, Friday

    Time Temperature Precipitation Wind Pressure Humidity
    00:00 +10°C° 0 mm 1 mps 618 mmHg 90%
    01:00 +10°C° 0 mm 1 mps 618 mmHg 90%
    02:00 +10°C° 0 mm 1 mps 618 mmHg 89%
    03:00 +10°C° 0 mm 1 mps 617 mmHg 88%
    04:00 +9°C° 0 mm 1 mps 617 mmHg 87%
    05:00 +11°C° 0 mm 1 mps 618 mmHg 82%
    06:00 +13°C° 0 mm 1 mps 619 mmHg 76%
    07:00 +15°C° 0 mm 1 mps 619 mmHg 71%
    08:00 +18°C° 0.1 mm 1 mps 620 mmHg 64%
    09:00 +19°C° 0.1 mm 1 mps 620 mmHg 58%
    10:00 +20°C° 0.1 mm 2 mps 620 mmHg 52%
    11:00 +20°C° 0.8 mm 2 mps 620 mmHg 55%
    12:00 +20°C° 0.8 mm 2 mps 620 mmHg 58%
    13:00 +19°C° 0.8 mm 2 mps 620 mmHg 61%
    14:00 +18°C° 2 mm 2 mps 619 mmHg 67%
    15:00 +18°C° 2 mm 1 mps 619 mmHg 73%
    16:00 +16°C° 2 mm 1 mps 618 mmHg 80%
    17:00 +15°C° 1.7 mm 1 mps 618 mmHg 84%
    18:00 +13°C° 1.7 mm 0 mps 618 mmHg 89%
    19:00 +13°C° 1.7 mm 0 mps 617 mmHg 93%
    20:00 +12°C° 1.3 mm 0 mps 617 mmHg 94%
    21:00 +12°C° 1.3 mm 1 mps 617 mmHg 95%
    22:00 +12°C° 1.3 mm 1 mps 617 mmHg 96%
    23:00 +11°C° 0.7 mm 1 mps 616 mmHg 96%

    21 July, Saturday

    Time Temperature Precipitation Wind Pressure Humidity
    00:00 +11°C° 0.7 mm 1 mps 616 mmHg 96%
    01:00 +11°C° 0.7 mm 1 mps 616 mmHg 96%
    02:00 +11°C° 0.6 mm 1 mps 616 mmHg 96%
    03:00 +10°C° 0.6 mm 1 mps 616 mmHg 96%
    04:00 +10°C° 0.6 mm 1 mps 615 mmHg 96%
    05:00 +11°C° 1 mm 1 mps 616 mmHg 95%
    06:00 +11°C° 1 mm 1 mps 616 mmHg 94%
    07:00 +11°C° 1 mm 1 mps 616 mmHg 94%
    08:00 +11°C° 1.5 mm 1 mps 616 mmHg 92%
    09:00 +12°C° 1.5 mm 1 mps 616 mmHg 91%
    10:00 +12°C° 1.5 mm 1 mps 616 mmHg 90%
    11:00 +12°C° 1.2 mm 2 mps 616 mmHg 88%
    12:00 +13°C° 1.2 mm 2 mps 617 mmHg 86%
    13:00 +13°C° 1.2 mm 2 mps 617 mmHg 85%
    14:00 +13°C° 1.3 mm 2 mps 617 mmHg 86%
    15:00 +13°C° 1.3 mm 2 mps 617 mmHg 87%
    16:00 +13°C° 1.3 mm 2 mps 617 mmHg 89%
    17:00 +12°C° 1.3 mm 2 mps 617 mmHg 90%
    18:00 +12°C° 1.3 mm 2 mps 617 mmHg 92%
    19:00 +10°C° 1.3 mm 2 mps 617 mmHg 94%
    20:00 +10°C° 0.7 mm 2 mps 617 mmHg 94%
    21:00 +9°C° 0.7 mm 2 mps 617 mmHg 95%
    22:00 +9°C° 0.7 mm 2 mps 617 mmHg 96%
    23:00 +9°C° 0.9 mm 2 mps 617 mmHg 96%
    Show more